DLH8NP EDDM-EDDL

Flight info

Callsign DLH8NP
Flight time 0h 50m
Altitude 30000
Route GIVMI6Q/08L GIVMI Y101 INBED DCT REKDI DCT LOHRE Z850 ARPEG/N0407F240 Z850 ADEMI T854 DOMUX DOMUX1A
Aircraft A320/M-SDE3FGHIRWY/LB1

Departure

Time 2026-04-30 18:20
Airport Munich Airport (EDDM)

Arrival

Time 2026-04-30 19:11
Airport Düsseldorf Airport (EDDL)
Time Latitude Longitude Altitude Speed Heading
2026-04-30 17:57 48.35650 11.79717 1467 ft 0 kts 84°
2026-04-30 18:08 48.35649 11.79701 1459 ft 2 kts 84°
2026-04-30 18:09 48.35643 11.79605 1458 ft 0 kts 84°
2026-04-30 18:10 48.35611 11.79563 1458 ft 0 kts 353°
2026-04-30 18:12 48.35636 11.79539 1461 ft 8 kts 314°
2026-04-30 18:13 48.35687 11.79422 1464 ft 7 kts 325°
2026-04-30 18:13 48.35817 11.79392 1466 ft 12 kts 353°
2026-04-30 18:14 48.35977 11.79338 1465 ft 5 kts 354°
2026-04-30 18:15 48.36072 11.79314 1462 ft 11 kts 328°
2026-04-30 18:15 48.36061 11.78910 1459 ft 18 kts 263°
2026-04-30 18:16 48.36035 11.78577 1462 ft 15 kts 263°
2026-04-30 18:16 48.36008 11.78239 1467 ft 16 kts 263°
2026-04-30 18:17 48.35997 11.78079 1467 ft 15 kts 263°
2026-04-30 18:17 48.35984 11.77915 1465 ft 18 kts 264°
2026-04-30 18:17 48.35958 11.77586 1464 ft 15 kts 263°
2026-04-30 18:18 48.35946 11.77426 1460 ft 17 kts 263°
2026-04-30 18:18 48.35932 11.77238 1461 ft 17 kts 263°
2026-04-30 18:18 48.35946 11.77051 1465 ft 21 kts 306°
2026-04-30 18:18 48.36064 11.76966 1466 ft 19 kts 352°
2026-04-30 18:19 48.36198 11.76942 1461 ft 20 kts 354°
2026-04-30 18:19 48.36298 11.77049 1466 ft 22 kts 77°
2026-04-30 18:19 48.36341 11.77583 1464 ft 85 kts 84°
2026-04-30 18:19 48.36430 11.78743 1463 ft 139 kts 83°
2026-04-30 18:20 48.36568 11.80349 1787 ft 155 kts 82°
2026-04-30 18:20 48.36693 11.81962 2580 ft 156 kts 85°
2026-04-30 18:20 48.36813 11.83638 3027 ft 172 kts 85°
2026-04-30 18:20 48.37039 11.85519 3305 ft 198 kts 66°
2026-04-30 18:21 48.38090 11.87046 3669 ft 232 kts 27°
2026-04-30 18:21 48.39772 11.87399 4235 ft 257 kts
2026-04-30 18:21 48.41561 11.86771 5042 ft 275 kts 333°
2026-04-30 18:21 48.42968 11.84772 5930 ft 285 kts 308°
2026-04-30 18:22 48.44170 11.82401 6886 ft 286 kts 310°
2026-04-30 18:22 48.46318 11.78522 8340 ft 290 kts 313°
2026-04-30 18:22 48.47625 11.76245 9205 ft 292 kts 313°
2026-04-30 18:23 48.48966 11.73921 10057 ft 295 kts 314°
2026-04-30 18:23 48.50316 11.71573 10838 ft 298 kts 314°
2026-04-30 18:23 48.51680 11.69190 11598 ft 302 kts 314°
2026-04-30 18:23 48.53054 11.66778 12362 ft 305 kts 314°
2026-04-30 18:24 48.55842 11.61853 13846 ft 313 kts 315°
2026-04-30 18:24 48.57263 11.59342 14526 ft 317 kts 315°
2026-04-30 18:24 48.58740 11.56737 14734 ft 338 kts 315°
2026-04-30 18:25 48.60320 11.53954 14859 ft 359 kts 315°
2026-04-30 18:25 48.63661 11.48029 15745 ft 376 kts 314°
2026-04-30 18:25 48.65360 11.44995 16358 ft 380 kts 315°
2026-04-30 18:26 48.68824 11.38792 17610 ft 386 kts 316°
2026-04-30 18:26 48.70732 11.35961 18207 ft 383 kts 326°
2026-04-30 18:26 48.72876 11.33678 18770 ft 382 kts 332°
2026-04-30 18:27 48.77333 11.29193 19822 ft 387 kts 332°
2026-04-30 18:27 48.79577 11.26923 20352 ft 389 kts 331°
2026-04-30 18:28 48.84140 11.22440 21388 ft 390 kts 337°
2026-04-30 18:28 48.86617 11.20834 21886 ft 386 kts 346°
2026-04-30 18:28 48.91516 11.17341 22852 ft 403 kts 325°
2026-04-30 18:29 48.93612 11.14470 23336 ft 407 kts 322°
2026-04-30 18:29 48.99872 11.05556 24606 ft 414 kts 322°
2026-04-30 18:30 49.04099 10.99501 25342 ft 419 kts 322°
2026-04-30 18:30 49.08383 10.93369 26039 ft 425 kts 322°
2026-04-30 18:31 49.10543 10.90280 26380 ft 427 kts 322°
2026-04-30 18:31 49.14907 10.84042 27051 ft 432 kts 322°
2026-04-30 18:32 49.19322 10.77709 27707 ft 438 kts 322°
2026-04-30 18:32 49.21547 10.74505 28030 ft 440 kts 322°
2026-04-30 18:32 49.26025 10.68032 28655 ft 445 kts 322°
2026-04-30 18:33 49.28287 10.64761 28954 ft 448 kts 322°
2026-04-30 18:33 49.32804 10.58214 29509 ft 453 kts 322°
2026-04-30 18:33 49.35098 10.54889 29788 ft 455 kts 322°
2026-04-30 18:34 49.37405 10.51540 30073 ft 457 kts 322°
2026-04-30 18:34 49.42018 10.44821 30359 ft 452 kts 322°
2026-04-30 18:35 49.46536 10.38206 30356 ft 447 kts 322°
2026-04-30 18:35 49.51035 10.31614 30358 ft 446 kts 322°
2026-04-30 18:36 49.57778 10.21716 30363 ft 447 kts 322°
2026-04-30 18:37 49.64516 10.11790 30365 ft 447 kts 322°
2026-04-30 18:37 49.69011 10.05149 30361 ft 447 kts 322°
2026-04-30 18:38 49.73498 9.98496 30359 ft 447 kts 321°
2026-04-30 18:38 49.77970 9.91819 30360 ft 447 kts 321°
2026-04-30 18:39 49.82450 9.85128 30360 ft 447 kts 321°
2026-04-30 18:39 49.86898 9.78473 30359 ft 447 kts 321°
2026-04-30 18:40 49.91368 9.71770 30355 ft 447 kts 321°
2026-04-30 18:40 49.95835 9.65052 30355 ft 447 kts 321°
2026-04-30 18:41 50.00310 9.58308 30357 ft 447 kts 320°
2026-04-30 18:41 50.04771 9.51562 30352 ft 447 kts 320°
2026-04-30 18:42 50.09423 9.45197 30354 ft 444 kts 326°
2026-04-30 18:42 50.16631 9.36110 30360 ft 444 kts 325°
2026-04-30 18:45 50.42961 9.02519 30361 ft 444 kts 324°
2026-04-30 18:46 50.47752 8.96380 30359 ft 444 kts 324°
2026-04-30 18:46 50.52525 8.90222 30363 ft 444 kts 324°
2026-04-30 18:47 50.57362 8.84215 30361 ft 443 kts 326°
2026-04-30 18:47 50.62295 8.78400 30378 ft 443 kts 327°
2026-04-30 18:48 50.67219 8.72568 30369 ft 443 kts 326°
2026-04-30 18:48 50.72119 8.66675 30371 ft 443 kts 326°
2026-04-30 18:49 50.77005 8.60742 30375 ft 443 kts 326°
2026-04-30 18:49 50.81888 8.54805 30368 ft 443 kts 325°
2026-04-30 18:50 50.86736 8.48907 30374 ft 443 kts 325°
2026-04-30 18:50 50.91620 8.42949 30232 ft 444 kts 325°
2026-04-30 18:50 50.94056 8.39969 29516 ft 437 kts 325°
2026-04-30 18:51 50.96424 8.37064 28836 ft 427 kts 325°
2026-04-30 18:51 50.98757 8.34197 28159 ft 419 kts 325°
2026-04-30 18:51 51.01045 8.31403 27502 ft 411 kts 328°
2026-04-30 18:51 51.03444 8.29026 26864 ft 404 kts 334°
2026-04-30 18:52 51.05899 8.26865 26238 ft 404 kts 334°
2026-04-30 18:52 51.08354 8.24692 25620 ft 404 kts 334°
2026-04-30 18:52 51.10804 8.22512 25018 ft 404 kts 334°
2026-04-30 18:52 51.13254 8.20328 24428 ft 403 kts 334°
2026-04-30 18:53 51.15698 8.18144 23824 ft 403 kts 334°
2026-04-30 18:53 51.17998 8.15571 23139 ft 408 kts 318°
2026-04-30 18:53 51.19714 8.11936 22473 ft 414 kts 299°
2026-04-30 18:53 51.20664 8.07611 21822 ft 416 kts 285°
2026-04-30 18:54 51.21312 8.03101 21185 ft 416 kts 284°
2026-04-30 18:54 51.21937 7.98604 20553 ft 413 kts 284°
2026-04-30 18:54 51.22550 7.94172 19941 ft 406 kts 284°
2026-04-30 18:54 51.23144 7.89816 19343 ft 399 kts 283°
2026-04-30 18:55 51.23730 7.85506 18752 ft 394 kts 284°
2026-04-30 18:55 51.24876 7.77126 17443 ft 385 kts 284°
2026-04-30 18:55 51.25449 7.72972 16801 ft 381 kts 283°
2026-04-30 18:56 51.25576 7.64652 15557 ft 374 kts 264°
2026-04-30 18:56 51.25313 7.60542 14946 ft 370 kts 263°
2026-04-30 18:56 51.25051 7.56480 14358 ft 364 kts 263°
2026-04-30 18:57 51.24557 7.48637 13281 ft 345 kts 263°
2026-04-30 18:57 51.24326 7.44868 12760 ft 337 kts 263°
2026-04-30 18:57 51.24104 7.41193 12254 ft 329 kts 263°
2026-04-30 18:58 51.23687 7.34063 11211 ft 318 kts 263°
2026-04-30 18:58 51.23486 7.30560 10606 ft 316 kts 263°
2026-04-30 18:58 51.23290 7.27087 9980 ft 313 kts 263°
2026-04-30 18:59 51.22926 7.20206 8685 ft 308 kts 263°
2026-04-30 19:00 51.22436 7.10139 6887 ft 297 kts 263°
2026-04-30 19:00 51.22290 7.06863 6424 ft 294 kts 263°
2026-04-30 19:00 51.22032 7.00428 5208 ft 286 kts 263°
2026-04-30 19:01 51.21668 6.94437 5009 ft 253 kts 248°
2026-04-30 19:01 51.21090 6.91819 5013 ft 249 kts 244°
2026-04-30 19:02 51.19852 6.86772 4458 ft 245 kts 243°
2026-04-30 19:02 51.18593 6.81714 3802 ft 243 kts 243°
2026-04-30 19:03 51.17340 6.76757 3170 ft 241 kts 240°
2026-04-30 19:03 51.15740 6.72260 3006 ft 224 kts 233°
2026-04-30 19:04 51.14158 6.68087 3015 ft 220 kts 233°
2026-04-30 19:04 51.12567 6.63884 3000 ft 222 kts 233°
2026-04-30 19:05 51.11893 6.59213 3005 ft 225 kts 289°
2026-04-30 19:05 51.13941 6.55664 3000 ft 217 kts 340°
2026-04-30 19:06 51.16697 6.55744 3040 ft 193 kts 22°
2026-04-30 19:06 51.17986 6.56306 3020 ft 191 kts 23°
2026-04-30 19:06 51.19753 6.58055 2815 ft 176 kts 58°
2026-04-30 19:07 51.21215 6.61100 2384 ft 169 kts 59°
2026-04-30 19:07 51.21921 6.62571 2170 ft 164 kts 59°
2026-04-30 19:08 51.23226 6.65288 1749 ft 142 kts 60°
2026-04-30 19:08 51.24372 6.67690 1366 ft 134 kts 59°
2026-04-30 19:08 51.24938 6.68873 1192 ft 134 kts 58°
2026-04-30 19:09 51.26063 6.71224 853 ft 133 kts 56°
2026-04-30 19:09 51.26628 6.72417 645 ft 135 kts 55°
2026-04-30 19:09 51.27193 6.73598 467 ft 133 kts 54°
2026-04-30 19:10 51.28320 6.75944 146 ft 129 kts 56°
2026-04-30 19:10 51.29095 6.77582 127 ft 50 kts 53°
2026-04-30 19:11 51.29275 6.77959 140 ft 24 kts 52°
2026-04-30 19:11 51.29232 6.78208 138 ft 2 kts 159°
2026-04-30 19:11 51.29230 6.78208 138 ft 0 kts 159°
2026-04-30 19:13 51.29133 6.78127 134 ft 14 kts 233°
2026-04-30 19:13 51.29009 6.77867 126 ft 15 kts 232°
2026-04-30 19:13 51.28946 6.77736 127 ft 16 kts 233°
2026-04-30 19:14 51.28869 6.77573 124 ft 18 kts 232°
2026-04-30 19:14 51.28795 6.77419 127 ft 17 kts 232°
2026-04-30 19:14 51.28730 6.77281 125 ft 15 kts 233°
2026-04-30 19:14 51.28668 6.77151 126 ft 15 kts 232°
2026-04-30 19:15 51.28600 6.77007 125 ft 18 kts 233°
2026-04-30 19:15 51.28422 6.76642 125 ft 23 kts 231°
2026-04-30 19:15 51.28348 6.76497 124 ft 11 kts 212°
2026-04-30 19:16 51.28277 6.76498 130 ft 7 kts 193°
2026-04-30 19:16 51.28266 6.76488 130 ft 0 kts 212°
2026-04-30 19:17 51.28256 6.76474 129 ft 5 kts 225°
2026-04-30 19:17 51.28221 6.76442 130 ft 6 kts 196°
2026-04-30 19:18 51.28136 6.76422 130 ft 9 kts 189°
2026-04-30 19:18 51.28111 6.76499 127 ft 8 kts 96°
2026-04-30 19:18 51.28109 6.76530 130 ft 1 kts 96°
2026-04-30 19:19 51.28109 6.76538 130 ft 0 kts 96°